Deer Park, WA
on Thursday, November 29, 2012

Thursday
Previous Day Next Day
Daily Summary
 ActualAverageRecord
Temperature
Mean Temperature °F 29°F  
Max Temperature 41°F 36°F 44°F (2002)
Min Temperature 28°F 23°F 6°F (2006)
Degree Days
Heating Degree Days 30 36  
Month to date heating degree days 804 900  
Since 1 July heating degree days 1716 1968  
Cooling Degree Days 0 0  
Month to date cooling degree days 0 0  
Year to date cooling degree days 232 187  
Moisture
Dew Point 34°F   
Average Humidity 96    
Maximum Humidity 100    
Minimum Humidity 92    
Precipitation
Precipitation 0.15 in 0.12 in 0.62 in (2001)
Month to date precipitation 3.82 3.20  
Year to date precipitation 23.82 19.26  
Wind
Wind Speed 2 mph   
Max Wind Speed 9 mph   
Max Gust Speed 12 mph   
Visibility 6 miles   
Events Fog , Rain   

Key: T is trace of precipitation, MM is missing value
Source: NWS Daily Summary
Time(PST)TemperatureDew PointHumidity Pressure Visibility Wind DirectionWind SpeedGust SpeedPrecipitationEvents Conditions
12:53 AM 32.0°F 30.9°F 96% 29.89 in 4.0 miles Calm Calm - N/A   Clear
1:35 AM 32.0°F 30.2°F 93% 29.85 in 7.0 miles NNW 3.5 mph - N/A   Mostly Cloudy
1:49 AM 33.8°F 32.0°F 93% 29.85 in 9.0 miles Calm Calm - N/A   Mostly Cloudy
1:53 AM 32.0°F 32.0°F 100% 29.91 in 8.0 miles Calm Calm - N/A   Overcast
2:08 AM 30.2°F 30.2°F 100% 29.86 in 1.5 miles NW 3.5 mph - N/A   Overcast
2:18 AM 30.2°F 28.4°F 93% 29.86 in 0.5 miles Calm Calm - N/A Fog Light Freezing Fog
2:53 AM 28.9°F 28.0°F 96% 29.91 in 0.5 miles Calm Calm - N/A Fog Light Freezing Fog
3:03 AM 28.4°F 28.4°F 100% 29.86 in 2.5 miles ENE 4.6 mph - N/A   Mostly Cloudy
3:10 AM 30.2°F 28.4°F 93% 29.86 in 9.0 miles ENE 3.5 mph - N/A   Overcast
3:20 AM 30.2°F 28.4°F 93% 29.86 in 1.2 miles NE 5.8 mph - N/A   Mostly Cloudy
3:25 AM 30.2°F 30.2°F 100% 29.86 in 0.2 miles NE 4.6 mph - N/A Fog Light Freezing Fog
3:45 AM 28.4°F 28.4°F 100% 29.86 in 1.0 miles Calm Calm - N/A   Overcast
3:53 AM 30.0°F 30.0°F 100% 29.92 in 1.8 miles Calm Calm - N/A   Overcast
4:11 AM 32.0°F 32.0°F 100% 29.86 in 0.5 miles ENE 3.5 mph - N/A Fog Fog
4:25 AM 32.0°F 32.0°F 100% 29.87 in 1.8 miles ENE 4.6 mph - N/A   Overcast
4:29 AM 32.0°F 32.0°F 100% 29.87 in 3.0 miles ENE 3.5 mph - N/A   Overcast
4:53 AM 32.0°F 32.0°F 100% 29.91 in 5.0 miles Calm Calm - N/A   Overcast
5:06 AM 33.8°F 32.0°F 93% 29.86 in 5.0 miles Calm Calm - N/A   Overcast
5:53 AM 33.1°F 32.0°F 96% 29.91 in 5.0 miles Calm Calm - 0.01 in Rain Light Rain
6:53 AM 33.1°F 33.1°F 100% 29.91 in 10.0 miles North 3.5 mph - 0.00 in   Overcast
7:07 AM 33.8°F 33.8°F 100% 29.85 in 9.0 miles NNE 3.5 mph - N/A   Overcast
8:53 AM 33.1°F 33.1°F 100% 29.89 in 5.0 miles Calm Calm - N/A   Overcast
9:53 AM 37.0°F 36.0°F 96% 29.87 in 10.0 miles NE 4.6 mph - N/A   Overcast
10:53 AM 37.9°F 37.0°F 97% 29.84 in 10.0 miles Calm Calm - N/A   Overcast
11:53 AM 39.9°F 37.9°F 93% 29.83 in 10.0 miles North 3.5 mph - N/A   Overcast
12:53 PM 39.9°F 39.0°F 97% 29.82 in 10.0 miles Calm Calm - N/A   Overcast
1:53 PM 41.0°F 39.0°F 93% 29.79 in 10.0 miles NE 5.8 mph - 0.02 in   Overcast
2:53 PM 39.9°F 39.0°F 97% 29.76 in 10.0 miles NNE 4.6 mph - N/A   Overcast
3:53 PM 39.9°F 39.0°F 97% 29.77 in 10.0 miles Calm Calm - N/A   Overcast
4:53 PM 39.9°F 39.0°F 97% 29.76 in 10.0 miles NW 6.9 mph - 0.01 in Rain Light Rain
5:53 PM 41.0°F 39.9°F 96% 29.76 in 10.0 miles Calm Calm - 0.02 in Rain Light Rain
6:53 PM 39.9°F 39.0°F 97% 29.75 in 8.0 miles NNE 5.8 mph - 0.02 in Rain Light Rain
7:53 PM 39.9°F 39.9°F 100% 29.73 in 10.0 miles North 3.5 mph - 0.01 in Rain Light Rain
8:53 PM 41.0°F 39.9°F 96% 29.72 in 10.0 miles NNW 3.5 mph - 0.01 in Rain Light Rain
9:53 PM 39.9°F 39.9°F 100% 29.70 in 10.0 miles NE 4.6 mph - 0.00 in   Overcast
10:53 PM 39.9°F 39.9°F 100% 29.69 in 10.0 miles NE 3.5 mph - 0.00 in   Overcast
11:53 PM 39.9°F 39.9°F 100% 29.68 in 4.0 miles Calm Calm - 0.04 in Rain Rain
Moon Phase
Nov. 29 Dec. 06 Dec. 13 Dec. 20 Dec. 28
Sunrise:07:16 AM (PST) Moon Rise:05:05 PM (PST)11/29
Sunset:03:59 PM (PST) Moon Set:08:07 AM (PST)11/29

Copyright © 2014 The Weather Underground, Inc.